Preview of NWS' New Version of Forecast
This preview is not operational and should not be used for support decisions.

Regional Weather Roundup (RWR)

Issued by Gray - Portland, ME (GYX)

                            
078 
ASUS41 KGYX 190810
RWRGYX
WEATHER ROUNDUP FOR MAINE AND NEW HAMPSHIRE
NATIONAL WEATHER SERVICE GRAY ME
300 AM EST MON FEB 19 2018

MEZ002-005-006-010-012-015-018-020-021-024-026-027-029-190900-
MAINE
  
CITY           SKY/WX    TMP DP  RH WIND       PRES   REMARKS
PORTLAND       FAIR      18  17  96 CALM      30.52S                  
SANFORD        FAIR      10   8  92 CALM      30.52S                  
BAR HARBOR     FAIR      19  17  92 CALM      30.54R                  
WISCASSET      FAIR      16  15  96 CALM      30.54S                  
ROCKLAND       FAIR      20  19  96 CALM      30.53S                  
FRYEBURG       FAIR      12  11  95 CALM      30.50R                  
LEWISTONAUBURN FAIR      12  10  92 CALM      30.51S                  
AUGUSTA        FAIR      24  17  74 SW3       30.50S                  
WATERVILLE     FAIR      19  15  84 CALM      30.45F                  
BANGOR         FAIR      11  10  96 S5        30.52R                  
GREENVILLE       N/A     19  13  77 CALM      30.38F                  
MILLINOCKET    FAIR       6   4  91 CALM      30.47F FOG              
HOULTON        FAIR       2  -1  88 S3        30.43S                  
PRESQUE ISLE   FAIR       2  -2  83 CALM      30.42F                  
FRENCHVILLE    FAIR      14  11  87 S6        30.35S                  
CARIBOU        FAIR      12   8  84 S5        30.40S                  
$$

NHZ002-005-008-009-011-012-014-190900-
NEW HAMPSHIRE
  
CITY           SKY/WX    TMP DP  RH WIND       PRES   REMARKS
PORTSMOUTH     CLEAR     22  20  90 CALM      30.51S                  
ROCHESTER      FAIR      18  17  96 CALM      30.49F                  
NASHUA         FAIR      16  15  96 CALM      30.53R                  
MANCHESTER     FAIR      22  18  85 CALM      30.51R                  
CONCORD        FAIR      17  13  84 CALM      30.50S                  
LACONIA        FAIR      11   8  88 CALM      30.49S                  
PLYMOUTH       FAIR      10   8  92 CALM      30.50S                  
BERLIN         FAIR       4   1  88 CALM      30.43F                  
WHITEFIELD     FAIR       4   2  91 CALM      30.41F                  
JAFFREY        FAIR      14  13  95 S3        30.47R                  
KEENE          FAIR      16  13  88 CALM      30.49F                  
LEBANON        FAIR      15  13  91 CALM      30.46S                  
MT WASHINGTON  PTCLDY    18  -6  35 SW22G32     N/A  WCI   0          
$$

VTZ005-007-008-190900-
VERMONT
  
CITY           SKY/WX    TMP DP  RH WIND       PRES   REMARKS
ST JOHNSBURY     N/A     12  11  95 MISG      30.42F                  
MONTPELIER     FAIR      26  19  74 S8        30.42F                  
BURLINGTON     FAIR      33  20  58 S9        30.36F                  
$$

MAZ007-012-024-CTZ003-RIZ002-NYZ038-NYZ072-190900-
SOUTHERN NEW ENGLAND AND NY
  
CITY           SKY/WX    TMP DP  RH WIND       PRES   REMARKS
BOSTON         FAIR      30  23  75 SW6       30.53F                  
WORCESTER      FAIR      26  18  71 CALM      30.47F                  
NANTUCKET      FAIR      31  30  96 SE6       30.55R                  
PROVIDENCE     FAIR      27  24  89 W3        30.54F                  
HARTFORD       FAIR      22  20  92 CALM      30.51F                  
ALBANY         FAIR      28  18  66 S7        30.45F                  
NEW YORK CITY  FAIR      36  25  64 SE8       30.53S                  
$$

ANZ081-ANZ082-ANZ150-NHZ014-MEZ023>029-190900-
COASTAL MARINE OBSERVATIONS
  
STATION/POSITION TIME  TEMP    WIND        PRES    WAVE
                       AIR SEA DIR/SP/G            HT/PER
                 (UTC) (F)     (DEG/KT/KT) (MB)    (FT/S)
MOUNT DESERT ROC 0800   35     310/  3/  5 1034.2R
MATINICUS ROCK   0800   35     170/  3/  4 1033.4R
ISLE OF SHOALS   0800   36     200/  8/  9 1033.3F
JEFFREYS LEDGE   0736      42                N/A     3/ 9
GEORGES BANK BUO 0650   39 59              1018.6   21/10
$$

.............KEY..............
   WCI - WIND CHILL
   TC  - TEMPERATURE IN CELSIUS
   VSB - VISIBILITY IN MILES
   HX  - HEAT INDEX
   FAIR- INDICATES FEW OR NO CLOUDS BELOW 12,000 FT, WITH NO 
         SIGNIFICANT WEATHER AND/OR OBSTRUCTIONS TO VISIBILITY.